Regional Weather Roundup
Issued by NWS

Home | Current Version | Previous Version | Graphics & Text | Print | Product List | Glossary On
Versions: 1 2 3 4 5 6 7 8 9 10 11 12 13 14 15 16 17 18 19 20 21 22 23 24 25 26 27 28 29 30 31 32 33 34 35 36 37 38 39 40 41 42 43 44 45 46 47 48 49 50
000
ASUS43 KLOT 261904
RWRIL

ILLINOIS REGIONAL WEATHER ROUNDUP
NATIONAL WEATHER SERVICE CHICAGO/ROMEOVILLE IL
200 PM CDT WED JUL 26 2017

NOTE: "FAIR" INDICATES FEW OR NO CLOUDS BELOW 12,000 FEET WITH NO
SIGNIFICANT WEATHER AND/OR OBSTRUCTIONS TO VISIBILITY.

* THESE STATIONS ARE NOT UNDER NWS QUALITY CONTROL. THEY ALSO MAY NOT
  REPORT WEATHER SUCH AS PRECIPITATION OR FOG.

ILZ001-002-007-009-015-016-024-262000-
NORTHWEST ILLINOIS

CITY           SKY/WX    TMP DP  RH WIND       PRES   REMARKS
MOLINE         CLOUDY    85  75  72 SW3       29.99  HX  93
STERLING*      CLOUDY    80  75  84 S3        30.03F HX  85
SAVANNA*       CLOUDY    81  74  81 S6        30.02S HX  86
$$

ILZ003-004-008-010-011-017-018-262000-
NORTH CENTRAL ILLINOIS

CITY           SKY/WX    TMP DP  RH WIND       PRES   REMARKS
ROCKFORD       CLOUDY    83  73  72 S6        30.03F HX  89
FREEPORT*      CLOUDY    78  73  84 S5        30.04F HX  81
ROCHELLE*      CLOUDY    80  74  81 SW5       30.04S HX  85
DE KALB*       PTSUNNY   81  74  80 S7        30.04F HX  87
PERU*          CLOUDY    82  72  72 S5        30.03F HX  87
$$

ILZ005-006-012>014-019>023-262000-
NORTHEAST ILLINOIS

CITY           SKY/WX    TMP DP  RH WIND       PRES   REMARKS
CHICAGO-OHARE  CLOUDY    84  69  60 SW9       30.02F HX  88
CHICAGO-MIDWAY CLOUDY    84  70  62 W10       30.03F HX  88
AURORA         CLOUDY    83  73  72 S6        30.04F HX  89
LANSING*       PTSUNNY   83  69  63 SW8       30.04F HX  86
JOLIET*        CLOUDY    84  73  70 S5        30.04F HX  90
WAUKEGAN       CLOUDY    83  72  69 W7        30.02F HX  88
DUPAGE AIRPORT CLOUDY    83  73  72 SW9       30.03F HX  89
KANKAKEE*      CLOUDY    82  71  70 S5        30.06S HX  86
WHEELING       MOSUNNY   84  70  62 SW7       30.04S HX  88
MORRIS*        CLOUDY    81  73  76 SE3       30.03S HX  86
ROMEOVILLE*    CLOUDY    83  69  64 SW6       30.04F HX  86
NORTHERLY ISL    N/A     85  64  49 S8          N/A  HX  86
$$

LMZ740>746-262000-
SOUTHERN LAKE MICHIGAN

STATION/POSITION SKY/WX   TEMP    WIND        PRES    VSBY  WAVE
                          AIR SEA DIR/SP/G                  HT/PER
                          (F)     (DEG/KT/KT) (MB)    (MI)  (FT/S)
SOUTHERN BUOY              71 71  180/ 10/ 12 1017.6          2/ 5
WILMETTE HARBOR            74 72  130/  8/ 10   N/A           1/ 3
HARRISON CRIB              80     150/ 10/ 12   N/A
BURNHAM HARBOR             84                   N/A
CALUMET HARBOR             82     200/  6/ 11 1016.5F
BURNS HARBOR               82     230/  7/ 13 1017.6F
MICHIGAN CITY              79     160/  6/  8   N/A
MICHIGAN CITY 6N           78 75  190/  4/  6   N/A           1
ST. JOSEPH                 76 75  210/  2/  2 1017.3F         1/ 3
$$

ILZ025>027-034>036-040-047-049-050-058-095>099-262000-
WEST-CENTRAL ILLINOIS

CITY           SKY/WX    TMP DP  RH WIND       PRES   REMARKS
QUINCY         CLOUDY    89  75  63 SW9       30.01F HX  99
GALESBURG*     CLOUDY    85  76  74 S6        30.02F HX  95
MACOMB*        PTSUNNY   87  76  70 SW5       30.03F HX  96
JACKSONVILLE*  CLOUDY    87  76  69 SW8       30.02F HX  98
PITTSFIELD*    CLOUDY    90  77  65 W6        30.03F HX 102
$$

ILZ028>032-037-038-041>044-048-051>054-059>061-262000-
CENTRAL ILLINOIS

CITY           SKY/WX    TMP DP  RH WIND       PRES   REMARKS
PONTIAC        CLOUDY    83  77  81 S6        30.04F HAZE    HX  93
BLOOMINGTON    CLOUDY    85  75  72 S8        30.05F HX  93
DECATUR        PTSUNNY   87  76  69 VRB6      30.03S HX  97
PEORIA         CLOUDY    85  76  74 S8        30.02F HX  94
LACON*         CLOUDY    84  75  75 CALM      30.01F HX  92
LINCOLN*       PTSUNNY   87  78  75 SW5       30.02F HX 100
SPRINGFIELD    CLOUDY    91  78  65 W5        30.02F HX 106
TAYLORVILLE    MOSUNNY   87  76  70 CALM      30.03S HX  97
$$

ILZ033-039-045-046-055>057-062-063-262000-
EAST-CENTRAL ILLINOIS

CITY           SKY/WX    TMP DP  RH WIND       PRES   REMARKS
CHAMPAIGN      PTSUNNY   86  75  69 S6        30.04F HX  95
RANTOUL*       CLOUDY    86  75  69 S5        30.05F HX  94
MATTOON        PTSUNNY   87  77  72 S10       30.03F HX  99
PARIS*         CLOUDY    85  76  74 S7        30.05F HX  95
$$

ILZ079-100>102-262000-
SOUTHWEST ILLINOIS

CITY           SKY/WX    TMP DP  RH WIND       PRES   REMARKS
ALTON          CLOUDY    90  77  66 W9        30.02F HX 102
BELLEVILLE     PTSUNNY   94  76  54 N3        30.01F HX 106
CAHOKIA*       CLOUDY    96  73  47 W9        30.00F HX 105
SPARTA*        MOSUNNY   94  74  51 SW5       30.02F HX 104
$$

ILZ064>066-069>071-074>076-080>082-084>086-088>090-092>094-262000-
SOUTH-CENTRAL ILLINOIS

CITY           SKY/WX    TMP DP  RH WIND       PRES   REMARKS
CARBONDALE     CLOUDY    94  76  55 SW12      30.02F HX 106
CAIRO*         MOSUNNY   91  79  66 SW7       30.04S HX 108
EFFINGHAM*     CLOUDY    91  77  63 S6        30.04F HX 103
MARION         PTSUNNY   95  77  55 S14       30.03F HX 109
MT. VERNON     PTSUNNY   93  79  63 SW8       30.01F HX 110
CENTRALIA*     PTSUNNY   93  77  60 CALM      30.01F HX 107
SALEM*         PTSUNNY   93  78  60 W3        30.02F HX 108
METROPOLIS*    MOSUNNY   92  76  58 SW8       30.04F HX 105
$$

ILZ067-068-072-073-078-083-087-091-262000-
SOUTHEAST ILLINOIS

CITY           SKY/WX    TMP DP  RH WIND       PRES   REMARKS
LAWRENCEVILLE  CLOUDY    88  77  69 S6        30.04F HX 100
FLORA*         CLOUDY    92  77  61 SW5       30.02F HX 106
FAIRFIELD*     MOSUNNY   92  78  62 SW3       30.01F HX 107
HARRISBURG*    PTSUNNY   93  78  62 SW8       30.03F HX 108
ROBINSON*      CLOUDY    86  76  73 S6        30.04F HX  96
CARMI*         MOSUNNY   91  79  69 SW8       30.01F HX 107
$$

ABBREVIATIONS USED IN REMARKS
   TC - TEMPERATURE IN CELSIUS
  WCI - WIND CHILL INDEX
   HX - HEAT INDEX
  VSB - VISIBILITY
$$





USA.gov is the U.S. government's official web portal to all federal, state and local government web resources and services.